Location: Unspecified
(0.0000°N, 0.0000°E)
Time: 11:18:17
(UTC+00:00)

Vanguard 2 - Pass Details

Date: 23 November 2019
Orbit: 553 x 2938 km, 32.9° (Epoch: 14 December)

Event Time Altitude Azimuth Distance (km) Brightness Sun altitude
Rises 22:42:34 0° 211° (SSW) 5,221 12.2 -64.3°
Reaches altitude 10° 22:47:40 10° 192° (SSW) 4,673 11.7 -65.0°
Maximum altitude 22:55:59 18° 155° (SSE) 4,626 11.5 -66.1°
Enters shadow 22:59:44 16° 139° (SE) 4,920 11.6 -66.6°
Exits shadow 23:05:10 11° 120° (ESE) 5,578 11.8 -67.2°
Drops below altitude 10° 23:05:47 10° 119° (ESE) 5,663 11.9 -67.3°
Sets 23:13:03 0° 102° (ESE) 6,791 12.3 -68.0°
